User: anonymous   Login
Location: Allentsteig
(48.6833°N, 15.3167°E)
Time: 12:35:03
(UTC+00:00)
Language:

Lacrosse 4 Rocket - Orbit

View from above orbital plane
View from above orbital plane
View from above satellite
View from above satellite

Ground track
Ground track

The orbit data is extracted from the following two-line orbital elements,

1 26474U 00047B   21162.73908339  .00000096  00000-0  19184-4 0  9990
2 26474  67.9921 166.5909 0054797 167.4687 192.7833 14.96160179132986
Epoch (UTC): 11 June 2021 17:44:16
Eccentricity: 0.0054797
inclination: 67.9921°
perigee height: 540 km
apogee height: 617 km
right ascension of ascending node: 166.5909°
argument of perigee: 167.4687°
revolutions per day: 14.96160179
mean anomaly at epoch: 192.7833°
orbit number at epoch: 13298

The dashed part of the orbit path shows where the satellite is in the earth's shadow,  

DLR